Tracking 28565 objects as of 3-Mar-2024
HD Live streaming from Space Station
objects crossing your sky now

THOR ABLESTAR DEB

Track THOR ABLESTAR DEB now!
10-day predictions


NORAD ID: 120
Int'l Code: 1961-015E
Perigee: 721.5 km
Apogee: 895.6 km
Inclination: 66.7 °
Period: 100.9 minutes
Semi major axis: 7179 km
RCS: 0.214 m2 (medium)
Launch date: June 29, 1961
Source: United States (US)
Launch site: AIR FORCE EASTERN TEST RANGE (AFETR)

Note: This is SATELLITE DEBRIS
Your satellite tracking list
Your tracking list is empty




NASA's NSSDC Master Catalog

Two Line Element Set (TLE):
1 00120U 61015E   24063.45872111  .00001041  00000-0  42705-3 0  9997
2 00120  66.7044  92.4148 0121303 251.0482 107.7436 14.27107036228957
Source of the keplerian elements: AFSPC